Regional Weather Roundup
Issued by NWS

Home | Current Version | Previous Version | Text Only | Print | Product List | Glossary On
Versions: 1 2 3 4 5 6 7 8 9 10 11 12 13 14 15 16 17 18 19 20 21 22 23 24 25 26 27 28 29 30 31 32 33 34 35 36 37 38 39 40 41 42 43 44 45 46 47 48 49 50
879
ASUS44 KFWD 092015
RWRTX
NORTH TEXAS HOURLY WEATHER ROUNDUP
NATIONAL WEATHER SERVICE FORT WORTH TX
200 PM CST TUE FEB 09 2016

NOTE: "FAIR" INDICATES FEW OR NO CLOUDS BELOW 12,000 FEET WITH NO
SIGNIFICANT WEATHER AND/OR OBSTRUCTIONS TO VISIBILITY.

TXZ118-119-092100-
DALLAS/FORT WORTH METROPLEX

CITY           SKY/WX    TMP DP  RH WIND       PRES   REMARKS
DFW AIRPORT    SUNNY     62  24  23 NW17      30.22F
DALLAS LOVE    SUNNY     60  24  25 NW8       30.23F
FTW MEACHAM    SUNNY     64  28  25 NW13G20   30.22F
DAL-EXECUTIVE  SUNNY     61  23  23 N16G22    30.21F
FTW-ALLIANCE   SUNNY     62  27  26 NW14G24   30.23F
FTW-NAS-JRB    SUNNY     65  25  22 N17       30.23F
FTW-SPINKS     SUNNY     64  27  24 NW12G20   30.24F
ARLINGTON      SUNNY     64  23  21 NW10      30.22F
GRAND PRAIRIE  SUNNY     61  23  23 NW12G21   30.24F
ADDISON        SUNNY     59  25  27 W12G20    30.23F
MESQUITE       SUNNY     61  23  23 W18       30.24F
LANCASTER      SUNNY     60  18  20 NW6G17    30.24F
$$

TXZ091>094-102>105-117-120-121-131>134-092100-
NORTH CENTRAL TEXAS

CITY           SKY/WX    TMP DP  RH WIND       PRES   REMARKS
SHRMAN/DENISON SUNNY     58  22  25 NW18      30.23F
GAINESVILLE    SUNNY     58  23  26 NW21G26   30.24F
BOWIE          SUNNY     58  24  27 NW13G23   30.24F
BRIDGEPORT     SUNNY     59  32  35 N10       30.26F
DECATUR        SUNNY     58  24  26 NW13G22   30.24F
DENTON         SUNNY     59  25  27 NW14      30.23F
MCKINNEY       SUNNY     58  24  27 NW14      30.22F
GREENVILLE     SUNNY     57  19  23 NW12G22   30.22F
ROCKWALL       SUNNY     58  24  26 N14G23    30.21F
TERRELL        SUNNY     59  23  25 NW14G22   30.22F
WAXAHACHIE     SUNNY     62  28  27 NW12G18   30.24F
CLEBURNE       SUNNY     64  28  25 NW17G23   30.24F
GRANBURY       SUNNY     66  31  26 NW15G24   30.24F
$$

TXZ083>090-098>101-113>116-127>130-139>142-154-155-092100-
WESTERN NORTH TEXAS

CITY           SKY/WX    TMP DP  RH WIND       PRES   REMARKS
WICHITA FALLS  SUNNY     59  25  27 N7        30.25F
WF-KICKAPOO    SUNNY     60  27  28 N8G17     30.26F
VERNON         SUNNY     61  24  24 NE8       30.24F
ABILENE        SUNNY     67  28  23 N18G29    30.26F
ABILENE-DYESS  SUNNY     68  30  24 NW13      30.24F
BRECKENRIDGE   SUNNY     69  28  21 N14G24    30.24F
GRAHAM         SUNNY     64  32  30 NW17      30.23F
MINERAL WELLS  SUNNY     66  29  24 NW15G24   30.22F
STEPHENVILLE   SUNNY     68  27  21 NW21G28   30.26F
COMANCHE       SUNNY     68  30  24 NW18G25   30.26F
BROWNWOOD      SUNNY     68  27  21 NW16G22   30.26F
COLEMAN        SUNNY     69  26  19 N16       30.27F
$$

TXZ143>147-156>162-174-175-092100-
CENTRAL TEXAS

CITY           SKY/WX    TMP DP  RH WIND       PRES   REMARKS
WACO           SUNNY     68  27  21 NW18G24   30.22F
WACO-TSTC      SUNNY     66  23  19 NW6       30.23F
WACO-MCGREGOR  SUNNY     69  30  23 NW15G23   30.22F
HILLSBORO      SUNNY     65  28  25 NW15      30.23F
CORSICANA      SUNNY     63  22  20 NW10G23   30.24F
MEXIA          SUNNY     62  23  22 W12G21    30.23F
HEARNE         SUNNY     64  25  23 NW7G20    30.27F
CAMERON        SUNNY     67  28  23 NW12      30.24F
KILLEEN        SUNNY     67  27  22 NW16G25   30.24F
KILLEEN-SKYLRK SUNNY     67  29  24 NW18      30.24F
FORT HOOD      SUNNY     68  27  21 NW17      30.22F
GATESVILLE     SUNNY     70  30  23 NW12G21   30.25F
HAMILTON       SUNNY     69  30  23 N20G25    30.25F
LAMPASAS       SUNNY     68  30  23 NW9G21    30.25F
$$

TXZ095>097-106>112-122>126-135>138-148>153-164>167-092100-
EAST TEXAS

CITY           SKY/WX    TMP DP  RH WIND       PRES   REMARKS
PARIS          SUNNY     54  21  28 NW20G35   30.19F
SULPHUR SPRNGS SUNNY     56  24  29 NW18      30.22F
MOUNT PLEASANT SUNNY     56  19  24 NW21G28   30.20F
GILMER         SUNNY     55  21  26 NW12G20   30.19F
MINEOLA        SUNNY     57  23  26 W16       30.22F
TYLER          SUNNY     60  22  23 NW21      30.20F
LONGVIEW       SUNNY     58  20  22 NW18G32   30.17F
MARSHALL       SUNNY     55  15  20 NW22G33   30.19F
ATHENS         SUNNY     57  23  26 NW8G18    30.21F
PALESTINE      SUNNY     59  25  26 NW10G23   30.24F
JACKSONVILLE   SUNNY     58  23  26 NW17G23   30.22F
HENDERSON      MOSUNNY   59  23  24 NW14G21   30.20F
CENTER         FAIR      59  17  19 NW16G28   30.16F
NACOGDOCHES    SUNNY     59  25  27 NW17G23   30.19F
LUFKIN         SUNNY     60  22  23 NW8G24    30.21F
$$

SUPPLEMENTAL OBSERVATIONS (CENTRAL)

CITY           SKY/WX    TMP DP  RH WIND       PRES   REMARKS
LAKE TEXOMA      N/A     52  23  32 NW18        N/A
PAT MAYSE LAKE   N/A     54  16  22 NW22        N/A
GREENVILLE       N/A     55  21  26 NW17G25     N/A
CEDAR HILL       N/A     64  25  22 NW5G15      N/A
ATHENS           N/A     63  27  25 NW6G14      N/A
LAKE LIMESTONE   N/A     63  25  23 NW13        N/A
MCGREGOR         N/A     70  30  23 NW13        N/A
$$

SUPPLEMENTAL OBSERVATIONS (WEST)

CITY           SKY/WX    TMP DP  RH WIND       PRES   REMARKS
COMANCHE         N/A     66  28  24 NW20G29     N/A
HAMBY            N/A     68  28  22 NW14        N/A
IVIE RESERVOIR   N/A     70  25  18 NW13        N/A
COLORADO BEND    N/A     68  28  22 N13G24      N/A
$$

SUPPLEMENTAL OBSERVATIONS (EAST)

CITY           SKY/WX    TMP DP  RH WIND       PRES   REMARKS
CLARKSVILLE      N/A     54  19  26 NW20G29     N/A
TEXARKANA        N/A     54  16  22 NW15G30     N/A
LINDEN           N/A     55  19  24 NW12G30     N/A
GILMER           N/A     57  21  24 NW15G24     N/A
HENDERSON        N/A     61  23  23 NW16G29     N/A
LUFKIN           N/A     61  23  23 MISG        N/A
S SABINE NF      N/A     61  23  23 NW8G20      N/A
$$

SUPPLEMENTAL OBSERVATIONS ARE A COLLECTION OF AUTOMATED INSTRUMENTS
THAT ARE MAINTAINED BY A VARIETY OF FEDERAL AND STATE AGENCIES.
CERTAIN ELEMENTS...SUCH AS HUMIDITY VALUES AND SUSTAINED WIND
SPEEDS...MAY BE APPROXIMATED.





USA.gov is the U.S. government's official web portal to all federal, state and local government web resources and services.